Temperature
22 22 22 22 19 17 19 20 20 21 21 21 21 20 19 18 18 17 17 17 17 17 17 17 17 17 17 17 17 18 18 18 18 18 18 18 18 18 18 18 18 18 18 18 18 18 18 18 18
22 22 22 21 17 18 19 20 20 21 22 21 21 20 19 18 18 17 17 17 17 17 17 17 17 17 17 17 17 17 18 17 17 17 18 17 17 17 17 17 17 17 17 17 17 17 17 17 17
22 22 22 18 18 18 20 20 21 22 22 22 20 20 19 18 18 18 18 17 18 18 17 17 17 17 17 17 17 17 17 17 17 17 17 17 17 17 17 17 17 17 17 17 17 17 17 17 17
22 22 21 18 19 20 20 20 21 22 22 21 20 19 19 18 18 18 18 18 18 18 17 17 17 17 17 17 17 17 17 17 17 17 17 17 17 17 17 17 17 17 17 17 17 17 17 17 17
22 22 18 18 20 20 20 21 22 21 21 20 19 18 18 18 18 18 18 18 18 17 17 17 17 17 17 17 17 17 17 17 17 17 17 17 17 17 17 17 17 17 17 17 17 17 17 17 17
22 19 18 18 20 21 21 22 21 21 20 20 19 18 18 18 18 18 18 18 18 18 17 17 17 17 17 17 17 17 17 17 17 17 17 17 17 17 17 17 17 17 17 17 17 17 17 17 17
21 18 18 19 20 20 21 22 21 20 21 20 20 18 18 18 18 18 18 18 18 18 17 17 17 17 17 17 17 17 17 17 17 17 17 17 17 17 17 16 16 17 16 16 16 16 16 16 16
23 18 19 19 20 20 22 22 22 21 21 21 20 18 18 18 18 18 18 18 18 17 18 17 17 17 17 17 17 17 17 17 17 17 17 16 16 16 16 16 16 16 16 16 16 16 16 16 16
23 18 18 19 20 20 22 22 22 22 21 21 20 20 19 19 18 18 18 18 18 17 17 17 17 17 17 17 17 17 17 17 17 17 17 16 16 16 16 16 16 16 16 16 16 16 16 16 16
21 18 20 21 20 20 21 22 21 21 20 19 19 19 19 19 18 18 18 18 18 18 17 17 17 17 17 17 17 17 17 17 16 16 16 16 16 16 16 16 16 16 16 16 16 16 16 16 16
21 19 21 21 22 22 21 21 22 20 19 19 19 19 19 19 18 18 18 18 18 18 18 17 17 17 17 17 17 17 17 16 16 16 16 16 16 16 16 16 16 16 16 16 16 16 16 16 16
21 21 22 22 22 22 21 21 21 21 21 21 20 20 19 19 18 18 18 18 18 18 18 18 17 17 17 17 17 17 16 16 16 16 16 16 16 16 16 16 16 16 16 16 16 16 16 16 16
21 21 22 22 22 22 21 21 21 21 21 21 20 20 19 19 19 18 18 18 18 18 18 17 17 17 17 17 17 16 16 16 16 16 16 16 16 16 16 16 16 16 16 16 16 16 16 16 16
21 21 22 22 22 21 21 20 20 20 20 20 19 19 19 19 19 18 18 18 18 18 18 17 17 17 17 17 17 16 16 16 16 16 16 15 16 16 16 15 16 16 16 15 15 15 15 15 15
22 21 20 21 21 21 21 19 19 20 20 19 19 19 19 19 18 18 18 18 18 18 18 17 17 17 17 17 16 16 16 16 16 16 15 15 15 15 15 15 15 15 15 15 15 15 15 15 15
21 20 19 20 21 21 20 18 18 20 19 18 18 19 18 18 18 18 18 18 18 18 18 17 17 17 17 17 16 16 16 16 16 16 15 15 15 15 15 15 15 15 15 15 15 15 15 15 15
19 18 18 19 20 20 19 18 18 19 19 18 18 18 18 18 18 18 18 18 18 18 18 18 17 17 17 17 16 16 16 16 16 15 15 15 15 15 15 15 15 15 15 15 15 14 14 15 15
18 18 19 19 19 19 18 17 18 19 19 18 18 18 18 18 18 18 18 18 18 18 18 17 17 17 17 17 16 16 16 16 15 15 15 15 15 15 15 15 15 14 14 14 14 14 14 14 14
19 19 19 19 20 19 17 17 17 18 18 17 17 17 17 18 18 18 18 17 18 18 17 17 17 17 17 17 16 16 16 16 15 15 15 15 15 15 14 14 14 14 14 14 14 14 14 14 14
19 19 19 19 20 19 17 17 17 17 17 18 17 17 17 17 17 17 17 17 17 17 17 17 17 17 17 17 16 16 16 15 15 15 15 15 15 14 14 14 14 14 14 14 14 14 13 13 13
19 19 19 19 19 19 18 17 17 17 17 17 18 18 17 17 17 17 17 17 17 17 17 17 17 17 16 16 16 16 16 15 15 15 15 14 14 14 14 14 14 14 14 14 13 13 13 13 13
19 20 20 19 18 17 18 16 16 16 16 16 16 17 17 17 17 17 17 17 17 17 17 16 16 16 16 16 16 16 15 15 15 15 14 14 14 14 14 14 14 14 13 13 13 13 13 13 13
20 20 20 19 18 17 17 16 15 16 15 16 16 16 16 17 17 17 17 16 16 16 16 16 16 16 16 16 16 15 15 15 15 14 14 14 14 14 14 14 13 13 13 13 13 13 13 13 13
20 19 18 16 16 16 16 16 15 15 16 16 16 16 16 16 16 16 16 16 16 16 16 16 16 16 16 15 15 15 15 15 15 14 14 14 14 14 14 13 13 13 13 13 13 13 13 13 13
19 16 16 16 15 15 16 16 15 16 16 16 16 16 16 16 16 16 16 16 16 15 15 15 15 15 15 15 15 15 14 14 14 14 14 14 14 14 14 13 13 13 13 13 13 12 12 12 12
18 16 15 16 15 15 16 15 15 16 17 17 16 16 16 16 16 16 16 16 15 15 15 15 15 15 15 15 15 14 14 14 14 14 14 14 14 13 13 13 13 13 13 12 12 12 12 12 12
18 16 16 15 16 15 15 15 16 16 16 15 15 15 15 16 16 16 15 15 15 15 15 15 15 15 15 15 14 14 14 14 14 14 14 13 13 13 13 13 13 12 12 12 12 12 12 12 12
18 17 14 15 15 15 15 15 15 15 15 15 14 14 15 15 15 15 15 15 15 15 15 15 15 15 14 14 14 14 14 14 13 13 13 13 13 13 13 13 12 12 12 12 12 12 12 12 12
18 17 15 14 14 14 14 15 16 15 15 14 14 14 15 15 15 15 15 15 15 15 15 15 14 14 14 14 14 14 13 13 13 13 13 13 13 12 12 12 12 12 12 11 11 11 11 11 11
17 17 15 15 15 14 13 14 16 15 15 15 14 14 14 15 15 15 15 14 14 14 14 14 14 14 14 14 13 13 13 13 13 13 13 12 12 12 12 12 12 11 11 11 11 11 11 11 11
Wind_Speed
3 1 3 4 6 6 3 2 3 4 4 5 9 10 8 6 5 5 2 7 8 6 6 8 9 10 11 11 11 12 12 13 13 13 13 14 14 14 14 14 14 14 14 14 14 14 13 12 11
1 1 4 5 5 4 2 0 5 4 6 7 9 8 8 6 4 6 4 7 8 7 7 8 10 10 10 10 11 12 12 12 12 13 13 13 14 14 14 14 14 14 14 14 14 14 12 11 10
2 1 4 4 4 4 3 2 4 4 5 5 6 6 5 5 4 4 6 9 8 7 7 9 10 10 10 10 11 11 11 11 12 12 13 13 13 13 13 13 13 13 13 13 13 12 11 10 10
3 5 5 6 5 2 5 4 5 6 6 6 7 6 4 3 4 6 10 10 8 6 7 9 10 10 10 11 11 11 11 11 11 12 12 12 12 12 13 12 12 12 12 12 11 11 11 10 10
4 5 6 4 3 1 3 5 6 6 4 5 7 6 4 2 7 10 10 10 9 6 7 9 10 10 10 10 10 10 10 10 11 11 11 11 11 11 11 11 11 11 11 11 10 10 10 10 10
5 5 5 3 2 2 3 5 8 9 7 7 7 6 2 2 7 10 10 8 8 7 6 8 10 10 9 9 10 10 10 10 10 10 11 10 10 10 10 10 10 10 10 10 9 9 10 9 9
5 4 3 3 3 2 3 4 7 6 5 4 7 6 3 2 6 10 9 8 7 7 6 6 7 9 9 9 9 9 10 10 9 9 10 10 10 9 9 9 9 9 9 9 9 9 9 8 8
5 5 3 2 3 1 1 4 5 6 5 5 6 8 6 6 7 9 9 8 7 6 5 5 6 7 7 7 8 8 9 9 8 8 8 8 8 9 8 8 8 8 8 8 7 8 8 7 8
5 5 2 3 4 3 2 5 3 3 6 4 4 6 8 10 9 9 7 5 5 5 3 4 5 5 6 6 7 7 7 7 6 6 7 7 6 6 6 6 7 7 7 7 7 7 8 7 7
5 3 2 3 5 5 4 5 4 4 7 6 7 7 9 9 9 9 8 6 5 5 4 4 4 4 4 5 5 4 5 5 5 5 5 5 5 5 5 5 6 6 7 7 8 8 8 7 6
4 4 2 2 4 5 5 3 2 7 5 6 10 11 10 9 8 8 7 7 6 7 6 5 5 5 4 4 4 3 4 4 4 4 4 5 5 5 5 5 6 6 7 7 7 7 7 6 5
3 1 3 3 4 5 4 2 3 4 6 9 13 13 10 10 9 8 7 6 5 6 6 6 6 5 4 4 3 3 3 3 2 3 5 5 3 3 3 3 4 5 5 5 5 4 5 6 5
3 1 2 3 4 4 6 4 3 2 5 9 11 11 9 8 7 6 6 6 5 5 5 6 6 6 5 4 3 3 2 2 3 4 4 5 3 2 2 3 3 4 5 4 4 4 5 5 5
4 4 3 3 4 3 6 2 3 1 6 9 10 9 8 7 7 5 5 5 5 5 5 5 6 6 6 4 3 3 3 3 3 3 4 5 5 3 2 2 2 3 4 4 4 4 4 3 4
3 4 3 1 2 2 5 3 1 3 8 9 7 7 7 6 6 6 6 5 5 5 5 5 6 6 6 5 4 3 3 4 3 3 4 5 5 4 3 2 2 3 4 5 5 5 4 4 4
3 3 0 3 2 3 5 2 3 2 7 7 6 5 6 5 5 6 6 5 5 5 5 4 6 6 5 5 4 3 4 4 3 3 4 5 6 6 4 3 2 3 4 4 3 3 3 3 3
2 2 3 3 2 3 5 3 3 2 6 6 5 5 5 4 3 3 4 5 5 6 5 4 5 5 5 4 4 4 4 4 3 4 4 4 5 6 5 3 2 4 3 3 3 3 2 2 2
4 3 3 4 2 4 5 3 3 2 5 6 5 4 4 4 4 4 4 5 5 5 5 5 4 4 4 4 4 3 3 2 3 3 3 4 5 5 5 3 3 3 3 3 3 2 2 1 1
4 4 4 5 4 4 5 4 4 3 3 4 4 4 4 4 4 4 5 5 5 4 4 4 4 3 4 3 3 3 2 1 1 1 3 4 4 4 4 3 2 2 2 1 1 2 2 2 2
3 2 1 1 3 4 4 3 3 3 4 6 7 6 6 4 3 3 4 4 4 4 3 4 4 3 3 3 3 3 3 2 2 1 2 3 4 4 4 3 2 2 2 2 2 2 1 1 2
3 5 4 3 0 2 3 2 3 3 2 3 4 5 6 7 6 5 4 4 4 4 4 4 3 3 2 3 3 3 3 2 2 1 1 0 3 3 3 3 2 2 2 1 1 1 2 0 1
4 5 5 4 3 3 3 2 5 3 1 2 2 3 5 5 5 5 5 4 4 4 4 4 3 3 3 3 4 5 3 2 2 1 1 1 1 2 2 2 2 2 1 2 1 1 1 1 1
5 4 3 3 3 1 1 3 5 1 3 4 4 4 5 6 7 6 6 6 5 4 3 3 3 3 3 4 4 4 3 2 1 1 1 0 0 1 1 1 1 2 1 2 1 1 1 1 1
2 4 5 4 4 2 4 5 4 3 6 5 4 4 5 6 6 6 5 4 3 2 2 3 3 3 3 3 3 3 3 3 3 2 2 1 1 1 0 0 1 2 2 2 2 2 2 2 1
5 5 3 3 2 4 2 4 5 5 5 7 6 5 5 5 6 5 5 4 3 3 3 3 4 3 2 3 3 3 3 3 4 3 3 2 1 1 2 0 1 1 2 2 2 2 2 2 2
3 7 6 4 4 3 1 3 4 3 1 4 5 5 5 5 5 5 6 6 5 4 3 3 4 3 3 2 2 2 2 2 2 3 3 3 3 3 2 1 1 1 2 2 2 2 3 2 3
3 4 6 5 1 1 2 2 4 3 4 4 5 5 5 5 4 4 4 5 5 4 4 4 4 3 3 2 2 1 1 2 2 2 2 2 2 1 1 1 1 1 1 1 1 1 2 2 3
4 5 5 3 2 2 3 3 3 4 3 3 5 5 4 3 3 3 3 3 3 4 3 3 4 4 3 3 2 2 1 2 1 1 2 2 2 1 1 1 1 1 1 1 1 1 2 1 2
2 2 3 4 4 4 3 5 4 7 7 6 6 6 5 4 4 3 2 1 1 2 3 3 3 2 2 2 2 1 1 1 1 1 1 2 2 1 2 2 2 2 2 2 1 1 1 2 2
5 5 6 4 3 4 3 5 3 5 6 7 6 5 5 4 4 3 2 2 2 2 2 2 2 2 2 2 2 2 1 1 1 0 1 1 1 2 1 1 1 2 2 2 2 3 2 2 3
Wind_Direction
313 358 95 65 54 55 53 21 106 77 67 63 77 85 85 71 91 126 178 132 131 127 116 105 100 94 89 86 84 82 79 77 76 76 76 76 76 77 76 75 75 73 71 70 71 78 84 85 82
350 60 65 59 77 74 38 353 92 95 134 122 82 80 77 72 83 111 117 136 131 127 121 111 105 99 94 90 88 85 82 79 77 77 79 80 78 78 77 76 75 74 72 73 74 76 79 82 79
338 86 76 67 85 131 142 181 121 94 98 97 80 59 74 103 110 128 147 140 126 119 120 117 110 106 101 96 93 90 86 83 80 80 82 82 81 80 79 77 75 74 74 74 74 74 75 76 76
61 47 56 73 88 153 151 156 126 94 67 65 95 66 57 92 133 139 139 133 124 115 118 116 111 109 105 101 97 94 91 87 83 82 83 84 83 82 81 79 78 76 75 74 72 69 69 70 71
66 70 63 63 81 101 121 127 112 91 79 77 91 92 67 44 115 127 133 130 127 124 118 118 114 112 110 107 103 100 94 89 86 84 85 85 85 86 84 82 80 77 75 72 69 66 66 68 70
55 67 83 82 88 85 94 111 97 91 103 106 100 103 97 118 115 129 133 131 131 131 120 120 119 115 112 110 106 104 99 92 88 85 85 87 88 87 86 83 79 77 74 70 67 64 63 66 68
103 92 123 138 117 87 132 118 110 114 115 121 123 105 118 135 133 132 131 127 124 118 112 113 119 116 114 112 109 106 103 97 91 87 84 84 83 84 86 83 80 74 72 68 64 59 57 60 67
121 99 86 117 123 122 157 101 121 125 116 118 114 127 155 185 147 124 121 121 124 122 122 116 116 115 113 113 112 110 107 104 97 90 84 82 80 77 80 78 75 72 69 65 60 55 50 55 64
86 78 114 171 148 158 114 98 88 85 96 77 87 135 157 154 132 117 113 110 126 133 142 131 124 123 124 123 118 114 107 102 96 88 82 81 75 72 73 73 70 66 63 56 49 47 45 48 56
83 118 201 177 156 148 111 108 135 96 87 77 76 93 125 132 132 133 139 144 150 157 160 150 139 138 133 124 113 101 92 93 95 91 84 84 80 71 67 63 56 53 53 46 44 42 43 46 53
122 158 152 110 128 123 108 87 86 118 115 146 142 143 145 139 140 144 151 160 166 163 159 157 150 140 130 116 116 99 92 96 94 93 90 88 78 66 59 55 48 48 47 41 39 42 43 49 59
113 131 134 133 115 107 109 87 72 119 170 165 153 151 152 153 158 159 160 161 157 154 160 158 150 146 137 130 120 112 103 96 94 100 95 91 81 63 55 52 46 45 44 43 39 44 44 50 62
119 119 101 118 103 112 105 98 111 119 141 143 139 142 152 160 163 164 161 154 152 147 152 156 150 146 139 127 124 117 109 112 118 110 106 107 98 87 64 49 49 45 49 51 46 46 47 47 55
166 141 100 88 93 102 109 97 96 153 132 134 137 146 149 153 154 148 149 146 142 144 147 146 140 138 131 132 132 127 117 118 114 108 113 118 111 97 80 61 49 46 55 60 64 57 52 43 54
122 94 30 348 145 154 106 41 130 172 126 133 146 151 146 148 140 146 158 155 152 149 150 145 144 137 132 131 135 129 119 110 96 105 112 117 115 107 95 83 54 47 60 61 61 59 59 46 46
74 81 325 281 182 169 120 205 268 188 136 142 156 153 155 160 154 156 152 146 143 135 131 143 143 137 136 133 134 127 119 106 98 105 106 111 113 112 101 86 66 68 75 68 55 44 44 42 38
49 160 219 271 235 158 142 197 258 200 139 146 156 160 157 147 131 151 154 147 139 137 133 125 127 135 141 138 132 122 113 101 98 94 95 107 108 112 106 94 77 83 72 53 56 41 47 49 32
208 199 206 216 228 131 142 198 236 202 146 160 166 164 157 152 170 158 137 135 133 125 120 117 115 129 135 125 112 97 91 87 83 86 94 107 110 113 106 94 81 81 69 49 48 45 32 41 19
172 168 206 225 200 147 164 195 215 195 158 165 163 163 167 174 173 135 128 124 119 107 108 113 116 120 127 131 135 130 135 130 114 95 110 114 112 115 109 93 89 81 89 84 74 60 42 21 19
165 164 219 268 178 157 169 207 226 196 185 181 173 171 172 164 129 121 117 117 119 123 128 128 137 142 147 153 163 157 154 154 152 118 106 125 126 131 128 114 116 106 100 78 60 61 63 17 32
193 182 204 204 76 71 129 306 276 245 175 162 171 167 171 168 162 156 138 138 137 140 156 156 163 151 142 138 118 99 80 61 49 43 41 93 139 136 131 132 131 139 139 155 159 121 120 143 328
227 220 198 174 141 233 171 237 269 234 212 201 198 174 174 174 165 158 151 150 162 176 169 164 162 146 135 132 133 138 142 156 201 196 208 293 106 127 135 137 141 154 162 169 187 158 164 151 244
213 219 194 173 161 224 209 172 280 213 226 236 220 192 175 171 164 165 165 169 171 172 160 159 148 138 133 131 144 148 147 169 163 145 162 239 321 64 106 137 150 173 182 193 187 168 185 178 186
141 59 37 49 82 263 226 172 270 227 213 211 213 192 175 167 164 166 166 157 153 143 135 138 130 127 130 137 144 154 164 160 141 162 193 222 255 287 321 92 167 190 200 212 208 198 202 205 203
82 85 35 356 358 253 206 159 244 248 216 190 182 178 173 160 157 157 151 152 155 149 149 149 139 131 129 134 146 165 175 173 177 190 198 196 215 244 253 232 229 213 217 221 205 201 224 216 216
174 142 157 199 226 273 340 203 257 285 206 151 145 144 143 147 152 158 165 168 171 165 158 158 157 154 147 152 175 163 168 175 198 200 190 200 213 229 238 222 233 233 232 239 219 225 233 225 230
151 180 174 152 218 252 277 283 315 20 70 103 118 119 129 145 155 161 163 170 175 173 173 175 168 160 162 168 164 154 169 184 209 209 196 205 223 229 223 218 221 244 240 244 219 240 252 247 245
156 149 98 127 176 246 277 252 235 227 194 158 142 145 144 133 143 145 147 165 180 177 171 161 168 177 179 175 179 161 186 201 201 182 202 207 221 230 225 235 226 245 261 256 222 241 253 240 256
143 130 125 140 164 169 227 260 222 195 189 181 179 169 159 151 158 160 149 141 140 139 147 156 160 161 165 178 181 156 162 171 156 173 230 220 204 201 215 234 228 242 249 249 230 259 256 245 266
178 184 155 167 225 182 186 259 276 189 191 175 175 172 168 161 154 153 140 110 85 98 128 161 173 183 195 190 176 183 179 142 119 242 268 248 211 209 213 220 236 253 253 243 233 252 261 251 254
Height
1506 1505 1505 1505 1509 1521 1525 1520 1514 1513 1513 1514 1513 1515 1519 1523 1526 1533 1531 1529 1529 1529 1528 1528 1527 1527 1526 1526 1525 1525 1524 1524 1523 1523 1522 1522 1521 1521 1521 1520 1520 1519 1518 1517 1514 1512 1514 1517 1519
1506 1505 1506 1507 1518 1532 1528 1519 1516 1513 1513 1514 1515 1518 1520 1524 1526 1528 1529 1530 1530 1530 1530 1529 1529 1528 1528 1527 1527 1526 1526 1525 1525 1524 1524 1524 1523 1523 1522 1522 1521 1521 1520 1519 1519 1518 1518 1520 1521
1506 1506 1507 1511 1522 1530 1526 1518 1514 1513 1513 1514 1518 1520 1523 1526 1528 1528 1529 1530 1531 1531 1531 1530 1530 1530 1529 1529 1528 1528 1527 1527 1526 1526 1526 1525 1525 1525 1524 1524 1523 1523 1522 1522 1521 1521 1521 1522 1523
1506 1507 1509 1518 1523 1520 1517 1515 1513 1514 1515 1516 1518 1523 1526 1528 1528 1529 1530 1531 1532 1532 1532 1532 1531 1531 1531 1530 1530 1530 1529 1529 1528 1528 1527 1527 1526 1526 1526 1526 1525 1525 1524 1524 1523 1523 1523 1524 1524
1506 1508 1516 1525 1522 1517 1514 1514 1513 1514 1516 1519 1520 1525 1528 1530 1530 1530 1531 1532 1533 1533 1533 1533 1533 1532 1532 1532 1532 1531 1531 1530 1530 1529 1529 1529 1528 1528 1527 1527 1527 1526 1526 1525 1525 1525 1525 1525 1525
1508 1510 1525 1530 1523 1517 1515 1514 1514 1516 1519 1521 1522 1526 1530 1531 1531 1532 1533 1533 1534 1534 1534 1534 1534 1534 1533 1533 1533 1533 1532 1532 1531 1531 1530 1530 1530 1529 1529 1529 1528 1528 1527 1527 1527 1527 1526 1526 1526
1509 1516 1524 1525 1524 1520 1516 1515 1515 1517 1519 1521 1522 1527 1531 1532 1532 1533 1534 1534 1535 1535 1535 1535 1535 1535 1535 1535 1534 1534 1534 1533 1533 1533 1532 1532 1531 1531 1530 1530 1530 1529 1529 1529 1528 1528 1528 1527 1527
1509 1515 1523 1524 1524 1521 1516 1515 1517 1517 1520 1522 1523 1525 1530 1532 1533 1534 1535 1535 1536 1536 1536 1536 1536 1536 1536 1536 1536 1535 1535 1535 1534 1534 1534 1533 1533 1532 1532 1531 1531 1531 1530 1530 1530 1529 1529 1529 1528
1509 1520 1526 1522 1521 1520 1516 1516 1518 1519 1520 1522 1523 1525 1527 1531 1533 1534 1535 1536 1536 1537 1537 1537 1537 1537 1537 1537 1537 1536 1536 1536 1535 1535 1535 1534 1534 1534 1533 1533 1532 1532 1532 1531 1531 1531 1530 1530 1529
1510 1522 1520 1515 1515 1516 1516 1516 1518 1520 1521 1523 1525 1526 1528 1530 1532 1534 1534 1535 1536 1536 1537 1537 1538 1538 1538 1537 1537 1537 1537 1537 1536 1536 1536 1535 1535 1535 1535 1534 1534 1533 1533 1532 1532 1532 1531 1531 1530
1511 1517 1514 1514 1514 1515 1516 1518 1519 1520 1523 1524 1524 1526 1528 1530 1532 1533 1534 1535 1536 1536 1537 1538 1538 1538 1538 1538 1538 1538 1538 1537 1537 1537 1536 1536 1536 1536 1535 1535 1535 1534 1534 1533 1533 1532 1532 1531 1531
1512 1513 1513 1514 1515 1516 1517 1518 1520 1520 1522 1523 1524 1525 1528 1530 1531 1532 1534 1535 1536 1536 1537 1538 1538 1538 1538 1538 1539 1538 1538 1538 1538 1537 1537 1537 1537 1536 1536 1536 1535 1535 1534 1534 1533 1533 1532 1532 1531
1513 1514 1514 1514 1516 1516 1517 1519 1520 1521 1522 1523 1524 1526 1528 1530 1531 1533 1534 1535 1536 1536 1537 1538 1538 1538 1539 1539 1539 1539 1539 1539 1538 1538 1538 1538 1537 1537 1537 1536 1536 1535 1535 1534 1534 1533 1532 1532 1532
1512 1513 1515 1515 1516 1517 1518 1520 1521 1522 1523 1524 1525 1526 1528 1529 1530 1532 1533 1534 1535 1536 1537 1537 1538 1538 1538 1539 1539 1539 1539 1539 1539 1539 1539 1538 1538 1538 1537 1536 1536 1535 1535 1534 1534 1533 1533 1532 1532
1512 1515 1517 1516 1516 1518 1519 1523 1523 1522 1523 1524 1525 1526 1527 1529 1530 1531 1532 1533 1534 1535 1536 1537 1538 1538 1538 1539 1539 1539 1539 1539 1539 1539 1539 1539 1538 1538 1537 1537 1536 1535 1535 1534 1534 1533 1533 1532 1532
1514 1520 1526 1519 1516 1517 1523 1531 1524 1523 1522 1524 1525 1526 1527 1528 1529 1530 1532 1532 1534 1534 1535 1536 1537 1538 1538 1538 1539 1539 1539 1539 1539 1539 1539 1539 1538 1538 1537 1537 1536 1535 1535 1534 1533 1533 1532 1532 1531
1522 1529 1528 1523 1516 1517 1522 1528 1524 1523 1522 1523 1525 1526 1527 1528 1529 1530 1531 1532 1533 1534 1534 1535 1536 1537 1537 1538 1538 1539 1539 1539 1539 1539 1539 1539 1538 1538 1537 1537 1536 1535 1535 1534 1533 1532 1532 1531 1531
1528 1528 1526 1525 1519 1519 1523 1526 1523 1523 1522 1523 1524 1525 1526 1527 1528 1529 1530 1531 1532 1533 1534 1534 1535 1536 1537 1537 1538 1538 1539 1539 1539 1539 1539 1538 1538 1538 1537 1537 1536 1535 1534 1533 1533 1532 1531 1531 1531
1517 1521 1525 1521 1516 1520 1524 1525 1523 1522 1522 1522 1523 1524 1525 1526 1527 1528 1529 1530 1531 1532 1533 1533 1534 1535 1535 1536 1536 1536 1537 1538 1538 1538 1538 1538 1538 1537 1537 1536 1536 1535 1534 1533 1532 1531 1531 1530 1530
1516 1522 1523 1519 1515 1519 1525 1525 1522 1521 1521 1521 1522 1523 1524 1526 1527 1528 1528 1529 1529 1530 1531 1532 1533 1533 1534 1534 1535 1536 1536 1537 1537 1538 1538 1538 1537 1536 1536 1536 1535 1534 1533 1532 1531 1531 1530 1529 1529
1516 1520 1520 1521 1518 1519 1523 1528 1524 1520 1520 1520 1521 1521 1522 1524 1525 1526 1527 1528 1529 1529 1530 1530 1531 1532 1533 1533 1534 1535 1536 1536 1537 1537 1537 1537 1536 1536 1535 1535 1534 1533 1532 1531 1530 1530 1529 1528 1528
1518 1511 1512 1516 1524 1530 1526 1540 1527 1522 1520 1519 1519 1520 1521 1522 1523 1524 1525 1526 1527 1528 1529 1529 1530 1531 1532 1532 1533 1533 1533 1534 1534 1535 1535 1535 1535 1535 1534 1534 1533 1532 1531 1530 1530 1529 1528 1528 1527
1510 1507 1510 1513 1520 1528 1528 1536 1531 1522 1522 1519 1518 1518 1518 1520 1521 1522 1523 1525 1526 1527 1528 1529 1529 1530 1530 1531 1532 1532 1533 1533 1533 1534 1534 1534 1533 1533 1533 1532 1532 1531 1530 1529 1529 1528 1527 1527 1526
1505 1510 1514 1520 1526 1537 1529 1535 1534 1525 1518 1516 1515 1515 1516 1518 1519 1521 1522 1524 1525 1526 1527 1527 1528 1528 1529 1530 1530 1531 1531 1531 1532 1532 1532 1532 1532 1531 1531 1531 1530 1529 1529 1528 1527 1526 1526 1525 1524
1508 1523 1538 1539 1544 1540 1526 1531 1530 1516 1511 1511 1512 1513 1514 1516 1518 1519 1521 1522 1523 1524 1525 1526 1526 1527 1528 1528 1529 1529 1529 1530 1530 1530 1530 1530 1530 1529 1529 1529 1528 1527 1527 1526 1525 1525 1524 1523 1522
1510 1520 1538 1545 1545 1538 1526 1530 1523 1512 1509 1509 1510 1512 1513 1514 1516 1518 1519 1520 1522 1523 1524 1525 1525 1526 1526 1527 1527 1527 1528 1528 1528 1529 1528 1528 1528 1528 1527 1527 1526 1525 1525 1524 1523 1523 1522 1521 1520
1511 1518 1518 1531 1532 1538 1534 1526 1518 1511 1510 1510 1511 1512 1512 1513 1515 1516 1518 1519 1520 1521 1522 1523 1524 1524 1525 1525 1525 1525 1526 1526 1526 1526 1527 1526 1526 1526 1525 1525 1524 1523 1523 1522 1521 1520 1519 1518 1518
1505 1511 1524 1530 1538 1542 1535 1529 1526 1516 1513 1511 1511 1511 1512 1513 1514 1515 1517 1518 1519 1520 1521 1522 1522 1523 1523 1523 1524 1524 1524 1524 1524 1524 1524 1524 1523 1523 1523 1522 1521 1521 1520 1519 1518 1517 1516 1515 1515
1509 1512 1518 1528 1531 1539 1541 1532 1511 1510 1509 1510 1510 1510 1510 1511 1513 1514 1515 1517 1518 1519 1519 1520 1520 1521 1521 1521 1522 1522 1522 1522 1522 1522 1522 1521 1521 1520 1520 1519 1519 1518 1517 1517 1516 1515 1514 1513 1512
1504 1508 1515 1527 1529 1531 1535 1530 1505 1505 1506 1506 1508 1509 1510 1511 1512 1513 1514 1515 1516 1517 1518 1518 1519 1519 1519 1519 1520 1520 1520 1520 1519 1519 1519 1518 1518 1518 1517 1517 1516 1515 1515 1514 1513 1512 1511 1510 1509